Regional Weather Roundup
Issued by NWS

Home | Current Version | Previous Version | Graphics & Text | Print | Product List | Glossary On
Versions: 1 2 3 4 5 6 7 8 9 10 11 12 13 14 15 16 17 18 19 20 21 22 23 24 25 26 27 28 29 30 31 32 33 34 35 36 37 38 39 40 41 42 43 44 45 46 47 48 49 50
000
ASUS43 KFSD 182010
RWRSD

WEATHER ROUNDUP FOR SOUTH DAKOTA
NATIONAL WEATHER SERVICE SIOUX FALLS SD
300 PM CDT WED OCT 18 2017

NOTE: "FAIR" INDICATES FEW OR NO CLOUDS BELOW 12,000 FEET WITH NO
SIGNIFICANT WEATHER AND/OR OBSTRUCTIONS TO VISIBILITY.


SDZ001>005-009-010-012>017-182100-
NORTHWEST AND NORTH CENTRAL SOUTH DAKOTA

CITY           SKY/WX    TMP DP  RH WIND       PRES   REMARKS
BUFFALO          N/A     61  23  23 SW9       29.96F
FAITH            N/A     61  18  18 NW9       30.03F
MOBRIDGE       SUNNY     63  21  20 NW9       29.99F
$$

SDZ012>016-024>037-041>051-057-063-072>074-182100-
SOUTHWEST AND SOUTH CENTRAL SOUTH DAKOTA

CITY           SKY/WX    TMP DP  RH WIND       PRES   REMARKS
RAPID CTY ARPT SUNNY     62  24  23 SE9       30.06F
PIERRE         SUNNY     64  21  19 N12       30.02F
CUSTER         SUNNY     60  23  24 SW8       30.11F
ELLSWORTH AFB  SUNNY     62  24  23 SE5       30.05F
PHILIP         SUNNY     65  24  21 N7        30.04F
PINE RIDGE     SUNNY     66  28  24 VRB3      30.09F
SPEARFISH      FAIR      59  28  31 NE5       30.06F
WINNER         FAIR      69  30  23 N15       30.05S
$$

SDZ004>011-016>023-039-040-182100-
NORTHEAST SOUTH DAKOTA

CITY           SKY/WX    TMP DP  RH WIND       PRES   REMARKS
ABERDEEN       CLOUDY    60  28  29 W12       30.00S
WATERTOWN      CLOUDY    61  27  27 NW18      29.96R
BROOKINGS      SUNNY     66  26  22 N20       29.95R
SISSETON         N/A     60  25  26 W15       29.94R
$$

SDZ017-020-022-023-036>040-048>070-182100-
SOUTHEAST SOUTH DAKOTA

CITY           SKY/WX    TMP DP  RH WIND       PRES   REMARKS
SIOUX FALLS    MOSUNNY   74  39  28 N14       29.95R
HURON          PTSUNNY   66  23  19 NW15      29.98S
CHAMBERLAIN    SUNNY     68  28  22 N10       30.03R
MITCHELL       SUNNY     70  29  21 NW17G24   29.99S
YANKTON        SUNNY     75  37  25 N12       29.96R
$$

ABBREVIATIONS USED IN REMARKS
   TC - TEMPERATURE IN CELSIUS
  WCI - WIND CHILL INDEX
   HX - HEAT INDEX
  VSB - VISIBILITY





USA.gov is the U.S. government's official web portal to all federal, state and local government web resources and services.